Location: Dehesa de la Cepeda
(40.6574°N, 4.3013°W)
Time: 10:24:02
(UTC+00:00)

Transit 2A Rocket - Pass Details

Date: 07 August 2021
Orbit: 586 x 917 km, 66.7° (Epoch: 24 September)

Event Time Altitude Azimuth Distance (km) Brightness Sun altitude
Rises 23:21:33 0° 310° (NW) 3,389 9.1 -31.4°
Reaches altitude 10° 23:25:06 10° 287° (WNW) 2,508 8.0 -31.6°
Enters shadow 23:27:43 14° 261° (W) 2,232 7.4 -31.8°
Maximum altitude 23:28:08 15° 256° (WSW) 2,230 - -31.8°
Drops below altitude 10° 23:31:14 10° 224° (SW) 2,571 - -32.0°
Sets 23:34:58 0° 202° (SSW) 3,531 - -32.1°
